Temp
24 23 21 22 23 22 22 22 23 23 23 22 21 19 19 19 19 19 19 19 19 19 19 19 19 19 19 19 19 19 19 20 20 20 19 19 19 19 19 19 19 19 19 19 19 19 19 19 19 19 19 19 19 19 19 19 18 18 18 18 18 18 18 18 18 18 18 17 17 17 17 18 17 18 18 17 17 18 18 19 19 19 18 17 17
24 22 21 22 22 22 22 22 22 23 23 22 21 19 18 19 19 19 19 19 19 19 19 19 19 19 19 19 19 19 19 19 20 19 20 19 20 19 19 19 19 19 19 19 19 19 19 19 19 19 19 19 19 19 19 19 18 18 18 18 18 18 18 18 18 18 18 18 17 17 17 17 17 17 17 17 17 18 18 18 19 19 18 17 17
23 22 20 21 22 22 22 22 22 23 23 22 21 19 18 18 19 19 19 19 19 19 19 19 19 19 19 19 19 19 19 19 20 19 20 19 19 20 20 19 19 19 19 19 19 19 19 19 19 19 19 19 19 19 19 19 19 18 18 18 18 18 18 18 18 18 18 18 18 18 18 17 17 17 17 17 17 17 18 18 18 18 17 16 17
23 22 20 20 21 22 22 22 22 23 23 22 21 19 18 18 18 18 18 18 19 19 19 19 19 19 19 19 19 19 19 19 19 19 19 19 19 19 19 19 19 19 19 19 19 19 19 19 19 19 19 19 19 19 19 19 19 18 18 18 18 18 18 18 18 18 18 18 19 19 19 19 18 17 17 17 17 17 17 17 17 17 17 17 17
23 22 20 20 20 21 22 22 22 22 23 22 20 19 18 18 18 18 18 18 18 19 19 19 19 19 19 19 19 19 19 19 19 19 19 19 19 19 19 19 19 19 19 19 19 19 19 19 19 19 19 18 18 18 18 18 18 18 18 18 18 18 18 18 18 18 18 18 19 20 20 20 18 17 17 17 17 16 17 17 17 17 17 17 17
23 22 21 20 19 20 21 22 22 22 22 22 20 18 18 18 18 18 18 18 18 18 19 19 19 19 19 19 19 19 20 19 19 19 19 19 19 19 19 19 19 19 19 19 19 19 19 19 19 19 19 18 18 18 18 18 18 18 18 18 17 17 17 17 18 18 18 19 20 21 21 20 19 17 17 17 17 17 17 16 17 17 17 17 17
23 22 21 21 20 20 21 21 22 22 22 22 19 18 18 18 18 18 18 18 18 18 19 19 19 19 19 19 19 20 20 19 19 19 19 19 19 19 19 19 19 19 19 19 19 19 19 19 19 19 18 18 18 18 18 17 17 17 17 17 17 17 17 17 18 18 19 20 21 21 21 20 19 18 17 17 17 17 17 17 17 17 17 17 17
23 22 22 22 20 20 21 21 22 22 22 21 19 18 18 18 18 18 18 19 19 19 19 19 19 19 19 19 19 20 20 19 19 19 19 19 19 19 19 19 19 19 19 19 19 19 19 19 19 19 18 18 18 18 18 17 17 17 17 17 17 17 17 18 18 19 20 21 21 21 21 21 20 18 17 17 17 17 17 17 17 16 17 17 17
23 22 22 22 20 20 20 21 22 22 22 21 18 18 18 18 18 18 18 19 19 19 19 19 19 19 19 19 19 19 19 19 19 19 19 19 19 19 19 19 19 19 19 19 19 19 18 18 19 18 19 19 19 18 18 18 17 17 17 17 17 17 18 18 18 19 20 21 21 21 21 21 20 19 17 17 17 17 17 17 18 17 17 17 17
23 23 22 22 20 19 20 21 21 21 21 20 18 18 18 18 18 19 19 19 19 19 19 19 19 19 19 19 19 19 19 19 19 19 19 19 19 19 19 19 19 19 19 18 18 18 18 18 18 18 19 19 19 19 18 18 18 18 17 17 17 17 18 18 19 20 21 21 21 20 21 21 20 19 17 17 17 17 17 18 18 17 17 17 16
23 23 23 22 19 19 20 21 21 21 21 19 18 18 18 18 18 19 19 19 19 19 19 19 19 19 19 19 19 19 19 19 19 19 19 19 19 19 19 19 19 18 18 18 18 18 18 18 18 18 19 19 19 19 19 19 19 18 18 18 18 18 18 19 20 21 21 21 20 20 20 20 20 18 17 17 17 17 17 17 17 16 16 16 16
22 23 22 21 19 19 20 20 20 20 20 19 18 18 18 18 18 19 19 19 19 19 19 19 19 19 19 19 19 19 19 19 19 19 19 19 19 19 19 18 18 18 18 18 18 18 18 18 18 19 19 19 19 19 19 19 19 19 18 18 18 18 18 19 20 21 21 21 21 21 20 20 19 18 17 17 17 17 16 16 16 16 16 16 16
22 22 21 20 19 19 19 20 19 20 20 19 18 18 18 18 18 18 19 19 19 19 19 19 19 19 19 19 19 19 19 19 19 19 19 19 19 19 19 19 19 18 19 18 18 19 19 19 19 19 19 19 19 19 19 19 19 19 18 18 18 18 18 19 20 21 21 21 21 21 20 20 18 17 17 17 16 16 16 16 16 16 16 16 16
22 22 21 20 19 19 19 19 19 19 19 19 18 18 18 18 18 18 19 19 19 19 19 19 19 19 19 19 19 19 19 19 19 19 19 19 19 20 20 19 19 19 19 18 18 19 19 19 19 19 19 19 19 19 19 19 19 19 18 18 18 18 18 19 20 21 21 21 21 21 20 19 18 17 17 17 16 16 16 16 16 16 16 15 15
22 22 21 20 19 19 19 19 19 18 19 19 19 18 18 18 18 19 19 19 19 19 19 19 19 19 19 19 19 19 19 19 19 19 19 19 20 20 19 19 19 19 19 19 18 19 19 19 19 19 19 19 19 20 20 20 19 19 18 18 18 18 19 20 21 21 21 21 20 21 20 19 17 17 16 16 16 16 16 16 15 15 15 15 15
21 21 21 20 19 19 19 19 18 18 19 19 19 19 18 18 19 19 19 19 19 19 19 19 19 19 19 19 19 19 19 19 19 19 19 19 19 19 19 18 18 18 19 19 18 18 19 19 19 19 19 19 19 20 20 20 19 19 19 18 18 18 19 20 21 21 21 21 20 21 20 18 17 16 16 16 16 16 16 16 15 15 15 15 15
21 21 21 20 20 20 19 19 18 18 19 19 19 19 19 19 19 19 19 19 19 19 19 19 19 19 19 19 19 19 19 19 19 19 19 19 19 19 18 18 18 18 18 18 18 18 18 18 18 19 19 19 19 20 20 20 19 19 19 18 18 18 19 20 21 21 21 21 21 21 20 18 17 16 16 16 16 16 16 15 15 15 15 15 15
21 22 21 21 21 20 20 19 18 18 18 19 18 18 18 18 18 19 19 19 19 19 19 19 19 19 18 19 19 19 19 19 19 19 19 19 19 18 18 18 17 17 18 18 18 18 18 18 18 19 19 19 19 20 20 20 19 19 19 18 18 19 19 19 21 21 20 20 21 21 20 18 17 16 16 16 16 16 16 16 16 15 15 15 15
21 22 21 21 21 21 20 19 19 19 19 19 18 18 18 18 18 19 19 19 19 19 19 19 19 19 18 19 19 19 19 19 19 19 19 19 18 18 18 17 17 17 17 18 18 18 18 18 18 18 19 19 19 20 20 20 19 19 19 19 18 19 19 20 21 21 21 20 21 20 19 18 17 16 16 16 16 16 16 16 15 15 15 15 15
21 21 21 21 21 21 20 20 19 19 19 19 19 18 18 18 18 18 19 19 19 19 19 19 19 19 19 19 19 19 19 19 19 19 19 18 18 18 18 17 17 17 17 18 18 18 18 18 18 19 19 19 19 20 20 20 19 19 19 19 19 19 19 20 21 21 21 21 20 20 19 18 16 16 16 16 16 16 16 15 15 15 15 15 15
21 21 21 21 21 21 20 20 20 19 19 19 19 18 18 18 18 18 19 19 19 19 19 19 19 19 19 19 19 19 19 19 19 19 19 19 18 18 18 17 17 17 17 17 18 18 18 18 18 19 19 19 19 20 20 20 19 19 19 19 19 20 20 20 21 21 21 21 20 20 19 18 16 16 16 16 16 16 15 15 15 15 15 15 15
21 21 21 21 21 20 20 20 20 19 19 19 19 19 18 18 18 19 19 19 19 19 19 19 19 19 19 19 19 19 19 19 19 19 18 18 19 18 18 18 18 17 17 17 18 18 18 18 18 19 19 19 19 19 19 19 19 19 19 19 19 20 20 20 20 21 21 21 21 20 19 18 16 16 17 16 16 16 15 15 15 15 15 15 15
22 21 21 21 20 20 20 20 20 19 19 19 19 19 18 19 19 19 19 19 19 19 19 19 19 19 19 19 19 19 19 19 19 19 19 19 19 18 18 18 18 18 17 17 18 19 19 19 19 19 19 19 20 20 20 19 19 19 19 19 20 21 20 20 20 21 21 21 21 20 19 18 17 16 16 16 16 16 15 15 15 15 15 15 15
22 22 21 20 20 20 20 20 19 19 20 20 20 19 19 19 19 20 20 19 19 19 19 19 19 19 19 19 19 19 19 19 19 19 19 19 19 19 19 18 18 18 18 18 18 19 19 19 19 19 19 20 21 21 21 20 20 19 19 19 20 20 20 20 21 21 21 20 20 20 19 18 17 17 16 16 16 16 15 15 15 15 15 15 14
22 21 21 20 20 20 20 19 19 19 20 20 20 19 19 19 20 20 20 20 20 19 19 19 19 19 19 19 19 19 19 19 19 19 19 19 19 19 19 19 19 19 19 19 19 19 19 19 19 19 19 20 21 21 21 21 21 20 20 20 20 20 20 21 21 21 21 20 20 19 19 18 17 17 16 16 16 16 15 15 16 15 15 14 14
21 21 21 20 20 20 20 19 19 19 19 19 19 19 19 19 19 19 19 19 20 19 19 19 19 19 19 19 19 18 19 19 19 19 19 19 20 20 20 19 20 20 19 20 20 19 20 20 20 20 20 20 21 21 21 21 21 21 21 20 20 20 21 21 21 21 21 20 20 19 19 19 18 17 16 16 16 16 16 16 16 15 15 15 14
21 21 21 20 20 20 19 19 19 19 19 19 19 19 19 19 19 19 19 19 19 19 19 19 19 18 19 18 18 19 19 19 19 19 19 19 19 19 19 19 20 20 20 20 20 20 20 20 20 20 20 20 21 21 21 21 21 21 21 21 21 21 21 21 21 21 21 20 20 19 19 19 18 17 16 16 16 16 16 16 16 15 15 15 14
21 21 21 20 20 19 19 19 19 19 19 19 19 19 19 19 19 19 19 19 19 19 19 19 19 18 18 18 18 19 19 19 19 19 19 19 19 19 19 19 19 20 19 20 20 20 20 20 20 20 20 21 21 21 21 21 20 20 21 21 21 21 21 21 21 21 21 20 20 20 19 19 19 18 17 16 16 16 16 16 16 15 15 14 14
21 21 21 20 20 19 19 19 19 19 19 19 19 19 19 19 19 19 19 18 19 19 19 18 19 19 18 18 18 19 19 19 19 19 19 19 19 19 19 19 19 20 20 20 20 20 20 20 20 20 21 21 21 21 21 21 20 20 20 20 20 20 20 20 21 21 21 21 20 20 20 19 19 19 18 16 16 16 16 16 16 15 15 15 14
21 20 20 20 20 19 19 19 19 19 19 19 19 19 19 19 19 19 18 18 19 18 18 18 19 19 18 18 18 18 18 18 18 19 19 19 19 19 19 19 19 19 20 20 19 19 20 20 20 21 21 21 21 21 21 21 21 20 20 20 20 20 21 21 21 21 21 21 20 20 19 19 19 19 19 17 16 16 16 16 16 16 15 15 15
20 20 20 20 19 19 19 19 19 19 19 19 19 19 19 19 19 19 19 18 18 18 18 19 19 19 18 18 18 18 18 18 18 18 18 18 18 18 18 18 19 19 19 19 19 19 20 20 20 20 21 21 21 21 21 21 21 21 20 20 20 20 21 21 20 20 21 21 21 20 20 19 19 19 19 18 18 17 16 16 16 16 16 15 15
20 20 20 20 19 19 19 19 19 18 19 19 19 19 19 19 19 19 19 19 18 19 19 19 19 19 19 19 18 18 18 18 18 18 18 18 18 18 18 18 19 18 19 19 19 19 19 19 19 19 20 20 21 21 21 21 21 21 21 21 20 19 20 20 20 20 20 20 20 20 20 19 19 19 19 19 18 18 17 16 16 16 16 16 15
20 20 20 19 19 19 19 19 19 18 19 19 19 19 19 19 19 19 19 18 18 18 18 18 18 18 18 18 18 18 18 18 18 18 18 18 18 18 18 18 18 18 18 18 18 19 18 19 19 19 20 20 20 21 21 21 21 21 21 21 20 20 19 19 20 20 20 20 20 20 20 20 19 19 19 19 19 18 17 17 16 16 16 16 15
20 20 19 19 19 19 19 18 18 18 18 18 18 18 18 18 18 18 18 18 18 18 18 18 18 18 18 18 18 18 19 18 18 18 18 18 18 18 18 18 17 17 17 18 18 19 18 18 19 19 20 20 20 21 21 21 21 21 21 21 20 20 20 19 19 20 20 20 20 20 20 20 20 19 19 19 19 18 18 17 17 16 16 15 15
20 19 19 19 19 18 18 18 18 19 18 18 18 18 18 19 18 18 18 18 18 18 19 18 18 18 18 18 19 19 19 19 19 19 19 19 19 19 18 18 18 18 17 17 18 19 19 19 19 19 19 20 20 21 20 21 21 21 21 21 20 20 20 19 19 19 19 19 19 19 19 20 20 20 19 19 19 18 18 18 17 16 16 15 16
19 19 19 19 19 18 18 19 18 18 18 18 18 18 19 19 19 19 19 19 18 19 19 19 18 19 19 19 19 19 19 19 19 19 19 19 19 19 19 18 18 18 18 17 18 18 19 19 19 18 19 19 20 20 20 20 20 20 20 20 20 20 20 20 20 19 19 19 19 19 19 19 19 19 19 19 19 18 18 18 17 17 16 16 16
19 19 18 19 19 19 19 19 18 18 18 18 18 18 19 19 19 19 19 19 19 19 19 19 19 19 18 18 19 19 19 19 19 19 19 19 19 19 19 18 18 18 18 18 18 18 18 18 18 18 18 18 19 20 20 20 20 20 20 19 20 20 20 20 20 19 19 19 19 19 19 19 19 19 19 18 19 19 18 18 18 17 16 16 16
19 18 18 19 19 18 18 18 18 18 18 18 18 19 19 19 19 19 19 19 19 19 19 19 18 18 18 18 18 19 19 19 19 19 18 19 19 19 18 18 18 18 18 18 18 18 18 18 18 18 17 18 18 19 19 19 19 19 19 19 19 19 19 20 20 19 19 19 19 19 19 19 19 18 18 18 18 19 19 18 17 17 17 16 16
18 18 18 18 18 18 18 18 18 18 18 19 19 19 19 19 19 19 19 19 19 19 19 19 18 18 18 18 18 18 18 18 18 18 18 18 19 18 18 18 18 18 18 18 18 18 18 18 18 18 18 18 18 18 18 19 19 19 19 19 19 18 18 19 19 19 19 19 19 19 19 19 18 18 18 18 18 18 18 18 17 17 17 16 16
17 17 17 18 18 18 18 18 18 18 19 19 19 19 19 20 19 19 19 19 19 19 19 19 19 18 18 18 18 18 18 19 18 18 18 18 18 18 18 18 18 18 18 18 18 18 18 18 18 17 18 18 18 18 18 18 18 19 19 18 18 18 18 18 18 19 19 19 19 19 18 18 18 18 18 17 17 17 18 18 18 18 18 17 16
17 17 17 18 18 18 18 18 18 18 18 19 19 19 20 20 20 20 20 19 19 19 18 18 18 18 18 18 18 19 18 18 18 18 18 18 18 18 18 18 18 18 18 18 18 18 18 18 17 18 18 18 18 18 18 18 18 19 19 19 19 19 18 18 18 18 18 19 19 19 19 18 18 18 18 17 17 17 17 17 17 18 18 17 17
18 17 18 18 18 18 18 18 18 18 18 19 19 19 19 19 20 20 19 19 19 18 18 18 18 17 18 18 18 18 18 18 18 18 18 18 18 18 18 18 18 18 18 18 18 18 18 18 18 18 18 18 18 18 18 18 19 19 19 19 20 20 19 19 19 19 18 19 19 18 18 18 17 17 17 17 17 17 16 17 17 17 18 17 17
18 18 18 18 18 18 18 18 18 18 18 18 18 19 18 18 19 19 19 19 18 18 18 17 17 17 17 18 18 18 18 18 18 18 18 18 18 18 18 18 18 18 18 18 18 18 18 17 18 18 18 18 18 18 18 18 18 19 19 19 20 20 20 20 19 18 18 19 18 18 18 17 17 17 17 17 16 16 16 16 16 17 17 17 17
17 18 18 18 18 18 18 19 18 18 18 18 18 18 18 18 18 18 18 18 17 17 17 17 17 17 17 17 17 17 17 17 18 18 18 17 17 17 17 18 18 18 18 18 18 18 17 17 17 17 17 18 18 18 18 17 18 18 19 19 20 20 20 20 20 19 19 19 19 18 18 18 17 17 16 16 16 16 16 16 16 16 17 16 16
17 17 18 18 18 18 18 18 18 18 18 18 18 18 18 18 18 18 17 17 17 17 17 17 16 17 17 17 17 17 17 17 17 17 17 17 17 17 17 17 17 17 17 17 17 17 17 17 17 17 17 17 18 18 17 17 17 18 18 18 19 19 20 20 20 20 20 20 20 19 18 18 18 17 17 16 16 16 16 16 16 16 16 16 16
17 17 17 18 18 18 18 18 18 18 18 18 18 18 18 18 18 18 17 17 17 17 17 17 17 17 17 17 16 16 16 16 17 17 17 17 17 17 17 17 17 17 17 17 17 17 17 17 17 17 17 17 17 17 18 17 17 17 17 17 17 18 18 19 18 19 20 20 20 20 19 19 18 18 17 17 17 16 16 16 16 16 16 16 16
17 17 17 18 18 18 18 18 18 18 18 18 18 18 18 18 18 18 17 17 17 17 16 17 17 16 16 16 16 15 15 16 16 16 16 16 16 16 16 16 16 16 16 16 16 16 16 16 17 17 17 17 17 18 18 18 17 17 17 16 16 16 17 17 17 18 19 19 20 20 19 19 19 18 18 18 18 17 17 16 16 16 16 16 16
16 16 17 17 17 18 18 18 17 17 17 17 17 18 18 18 18 17 17 17 17 16 16 16 16 16 16 16 15 15 15 15 15 15 15 15 15 15 15 15 15 15 15 16 16 16 16 16 16 17 17 17 17 17 18 18 18 18 17 17 16 16 16 16 16 17 17 18 19 20 19 19 18 18 18 18 18 18 18 17 17 17 16 16 16
16 16 16 17 17 17 17 17 17 17 17 17 17 17 17 17 17 17 17 17 16 16 16 16 15 15 15 15 15 15 14 14 14 14 15 15 14 14 14 14 15 15 15 15 15 15 15 15 15 16 16 16 17 17 17 17 18 18 17 17 17 17 17 17 16 17 17 17 18 19 19 19 18 18 18 18 18 19 18 18 17 17 17 16 16
15 15 15 16 16 16 16 16 16 16 16 16 17 17 16 17 17 16 16 16 16 16 16 16 15 15 15 15 15 15 14 14 14 14 14 14 13 13 14 14 14 14 14 15 15 14 14 14 14 15 15 15 15 16 16 16 17 17 17 17 18 18 17 18 17 17 17 17 17 18 19 19 18 18 19 19 19 19 19 18 18 17 17 17 16
15 15 15 15 15 15 15 15 15 15 16 16 16 16 16 16 16 16 16 16 15 15 15 15 15 15 15 15 14 14 14 14 14 13 13 13 12 13 13 13 13 13 13 14 14 13 14 14 14 14 14 14 14 14 15 15 15 16 16 16 17 17 17 18 18 17 17 17 17 17 18 19 18 18 19 20 20 19 19 19 19 18 18 17 17
Height
798 800 802 802 805 806 808 810 811 811 812 813 814 815 816 818 819 819 820 821 821 821 822 822 823 824 824 825 825 825 825 825 826 826 826 827 827 827 827 827 827 827 828 828 829 829 829 829 830 830 830 830 830 830 829 829 829 829 830 829 829 829 829 829 829 829 829 829 830 830 830 830 830 830 830 830 829 829 829 829 829 830 829 829 829
796 800 801 803 805 806 809 810 812 812 813 814 815 816 817 819 819 821 821 822 822 823 823 824 824 825 826 826 826 826 827 827 827 827 828 828 828 829 829 829 829 829 829 830 830 830 830 831 831 831 831 831 831 831 831 831 831 831 831 831 830 830 830 830 830 830 830 830 831 831 831 831 831 831 831 831 830 830 830 829 829 830 830 830 830
796 800 802 803 805 807 809 811 812 812 814 814 815 816 818 819 820 821 822 823 823 824 824 825 826 826 827 827 828 828 828 828 829 829 829 829 830 830 830 830 830 830 830 831 831 831 832 832 832 832 833 832 833 832 832 832 832 832 832 832 832 831 831 831 831 831 831 831 832 832 832 832 832 832 832 832 832 831 831 830 830 831 831 831 831
797 800 802 804 806 807 809 811 813 813 814 815 816 817 818 820 821 822 823 824 824 825 825 826 827 827 828 828 829 829 829 829 830 830 830 831 831 831 831 831 832 831 832 832 833 833 833 833 833 834 834 834 834 834 834 834 833 833 833 833 833 832 832 832 832 832 832 832 833 833 834 834 834 834 834 834 833 832 832 832 832 832 832 832 832
797 800 802 805 807 808 810 812 813 813 814 815 816 818 819 820 822 823 824 825 825 826 826 827 828 828 829 829 830 830 830 830 830 831 831 832 832 832 832 833 833 833 833 834 834 834 835 835 835 835 835 835 835 835 835 835 835 834 834 834 833 833 833 833 833 833 833 833 834 835 836 836 835 835 835 835 834 834 833 833 833 833 833 833 833
798 800 803 806 808 809 810 812 813 814 815 816 817 818 820 821 822 823 824 825 826 827 827 828 829 829 829 830 830 831 831 831 831 832 832 833 833 833 834 834 834 834 834 835 836 836 836 836 836 836 836 836 836 836 836 836 836 836 835 835 835 834 834 834 834 835 834 834 835 836 837 837 837 836 836 836 835 835 835 834 834 834 834 834 834
798 801 803 806 809 809 811 813 814 815 815 816 818 820 821 822 823 824 825 826 827 828 828 829 829 830 830 831 831 831 832 832 832 832 833 834 834 835 835 835 835 836 836 836 837 837 837 838 837 837 837 837 837 837 837 837 837 837 837 836 836 836 836 836 836 835 835 836 837 837 837 837 838 837 837 837 837 836 836 835 835 835 835 835 835
800 802 804 807 809 810 811 814 815 816 816 817 819 821 822 823 824 825 826 827 828 828 829 830 830 831 831 831 832 832 832 833 833 834 834 835 835 836 836 836 836 837 837 838 838 838 839 839 839 839 838 838 838 839 839 838 838 838 838 837 837 837 837 837 837 836 836 838 838 838 838 838 838 838 838 838 838 837 837 837 836 836 836 836 836
801 803 805 808 809 810 812 814 816 816 817 818 820 821 823 824 825 825 826 827 828 829 830 830 831 831 832 832 833 833 834 834 834 835 835 836 837 837 837 838 838 838 838 839 839 839 840 840 840 840 840 839 839 839 839 839 839 839 839 839 838 838 838 838 837 837 838 839 839 839 839 839 839 839 839 839 839 838 838 838 838 837 837 837 836
801 804 806 809 810 812 813 815 816 817 818 819 821 822 823 824 825 826 827 828 829 829 830 831 831 832 832 833 833 834 835 835 836 836 836 837 838 838 839 839 839 840 839 840 840 841 841 841 842 841 841 841 841 840 840 840 840 840 840 840 839 839 839 838 838 839 840 840 840 840 839 840 840 840 840 839 839 839 839 839 839 838 838 837 837
803 805 808 809 812 813 814 816 817 818 819 820 821 823 824 825 826 827 828 828 829 830 831 832 832 833 833 834 834 835 836 836 837 837 838 838 839 839 840 840 840 841 840 841 841 841 841 842 842 842 842 842 842 841 841 841 840 841 840 840 840 840 840 839 839 841 842 841 841 841 840 840 841 841 840 840 840 840 839 840 839 839 839 838 838
804 807 808 810 813 814 816 817 818 819 820 821 822 824 825 826 827 828 829 829 830 831 832 832 833 834 834 835 835 836 837 837 838 838 839 839 839 840 840 841 841 841 841 842 842 842 842 842 842 842 843 842 842 842 842 841 841 841 841 841 841 841 841 839 841 843 842 842 842 842 842 842 842 841 841 841 840 840 840 840 840 840 839 839 839
805 808 809 812 814 816 817 818 819 820 821 822 823 825 826 827 828 829 830 830 831 832 833 833 834 835 835 836 836 837 838 838 839 839 840 840 840 840 840 841 841 841 842 842 842 842 842 843 843 843 843 843 843 843 843 843 842 842 842 842 842 842 841 841 842 844 843 843 843 843 843 843 843 842 842 842 841 841 840 840 840 840 840 839 839
806 808 810 813 815 817 818 820 820 821 822 823 824 826 827 828 829 830 831 831 832 833 833 834 835 835 836 837 837 838 838 839 839 840 840 840 841 841 841 841 841 842 842 842 843 843 843 843 844 844 844 844 844 844 844 843 843 843 843 843 843 842 842 842 844 844 844 844 844 844 844 844 843 843 843 843 842 841 841 841 840 840 840 839 839
807 809 811 814 816 818 819 821 821 823 823 824 826 826 828 829 830 830 832 832 833 834 834 835 836 836 837 837 838 838 839 839 840 840 841 841 841 842 842 842 842 842 842 842 843 843 843 844 844 844 845 845 844 844 844 844 844 844 844 843 843 843 842 844 845 845 845 844 844 844 844 844 843 844 844 844 843 842 842 841 841 841 840 840 840
808 810 812 814 816 819 820 822 822 824 824 826 826 827 829 829 831 831 832 833 834 835 835 836 836 837 838 838 839 839 840 840 841 841 841 842 842 842 842 842 842 842 842 842 843 843 843 844 844 845 845 845 845 845 845 845 845 845 844 844 844 844 843 844 846 846 845 845 845 845 845 844 843 843 844 844 844 843 843 842 841 841 841 840 840
809 811 813 814 817 819 821 823 823 824 826 827 827 828 830 830 832 832 833 834 835 835 836 837 837 838 839 839 840 840 841 841 841 841 842 842 842 843 843 843 843 843 842 842 843 843 844 844 845 845 846 846 846 846 845 845 845 845 845 845 845 845 844 844 846 846 846 845 845 846 845 844 843 843 843 844 844 844 843 843 842 842 841 840 840
810 812 813 815 817 819 821 823 824 826 827 828 829 830 831 832 833 833 834 835 836 836 837 837 838 839 840 840 841 841 841 842 842 842 842 843 843 843 843 844 843 843 843 843 843 844 844 844 845 846 846 846 846 846 846 846 846 846 846 846 845 846 845 844 846 847 846 846 846 846 845 844 843 843 843 843 844 844 844 843 843 842 841 841 840
811 812 814 816 817 819 820 823 825 826 828 829 830 831 832 832 833 834 835 836 836 837 838 838 839 840 840 841 841 841 842 842 842 843 843 843 844 844 844 844 844 844 844 844 844 844 845 845 845 846 846 846 846 846 846 846 846 846 846 846 846 846 845 845 847 847 846 846 846 846 845 844 843 843 844 844 844 844 844 843 843 842 842 841 841
811 813 815 816 817 820 821 823 824 826 828 829 831 832 833 833 834 835 836 837 837 838 838 839 839 840 841 841 842 842 842 842 843 843 843 844 844 845 845 845 845 845 844 844 844 845 845 845 846 846 846 847 847 847 846 846 846 846 847 847 847 846 846 847 847 847 847 847 847 846 845 844 844 844 844 844 844 844 844 843 843 843 842 842 841
812 813 815 816 818 820 821 823 824 826 828 829 831 832 833 834 835 836 836 837 838 839 839 840 840 841 842 842 842 842 843 843 843 843 844 844 844 845 845 845 845 845 845 844 845 845 845 846 846 846 847 847 847 847 847 846 847 847 847 847 846 847 848 848 848 848 847 847 847 846 845 844 845 845 845 844 844 844 844 843 843 843 843 842 842
812 813 815 817 818 820 822 824 825 826 828 829 831 832 834 835 836 837 837 838 838 839 840 840 841 841 842 842 842 843 844 844 844 844 844 844 844 845 845 845 845 845 845 845 845 845 846 846 846 847 847 847 847 847 847 847 847 847 847 847 847 848 848 848 848 848 848 848 848 847 846 845 845 846 846 845 845 844 844 844 843 843 843 842 842
812 813 816 817 819 821 822 824 825 827 828 830 831 833 834 835 837 838 838 838 839 840 840 841 841 842 842 842 843 843 844 844 844 844 845 845 844 845 845 845 845 845 845 845 845 845 846 846 846 847 847 847 847 848 848 847 847 847 847 847 847 848 848 848 848 848 848 848 848 847 846 846 846 847 847 846 846 845 844 844 844 843 843 842 843
812 814 816 818 820 821 823 824 826 827 829 830 832 833 835 836 837 838 839 839 840 840 841 841 842 842 843 843 843 844 845 845 845 845 845 845 845 845 845 845 846 846 846 846 846 846 846 846 846 847 847 848 848 848 848 848 848 847 847 847 848 848 848 847 847 847 847 847 847 846 846 846 846 846 847 847 846 845 845 845 844 844 843 842 842
812 814 817 818 820 822 823 825 826 828 829 830 832 833 835 836 837 838 839 840 840 841 841 842 842 843 843 844 844 844 845 845 845 845 845 846 846 846 846 846 846 846 846 846 847 846 846 847 847 847 847 848 848 848 848 848 848 848 847 847 848 848 848 847 847 847 847 847 846 846 845 845 845 846 846 847 846 846 845 845 845 844 843 842 842
813 815 817 819 821 822 824 825 827 828 829 830 832 833 834 836 837 838 839 840 841 841 842 843 843 843 844 844 844 845 845 845 845 845 845 846 846 846 846 846 847 847 846 847 847 847 847 847 847 847 847 847 847 847 847 847 847 847 847 847 847 847 847 847 847 847 847 847 846 845 845 844 844 845 846 846 846 846 846 845 845 844 843 842 842
813 815 817 820 821 823 825 826 827 828 829 830 832 833 834 835 836 837 838 840 841 842 842 843 843 844 844 844 844 845 845 845 844 844 845 845 845 845 846 846 846 846 846 846 846 846 846 846 846 846 846 846 846 846 846 847 847 846 847 846 846 847 846 846 846 846 846 846 845 845 845 844 844 844 844 845 846 845 846 846 845 844 843 842 842
814 816 818 820 822 824 825 826 828 829 830 831 832 833 834 835 836 837 838 839 841 842 842 843 843 844 844 844 844 845 844 844 844 844 845 845 845 845 845 846 846 846 846 846 846 846 846 846 846 846 845 845 845 845 845 845 846 846 846 846 846 846 846 845 845 845 845 845 845 844 844 844 843 843 843 844 844 845 845 845 845 844 843 843 842
814 817 819 821 823 824 825 827 828 829 830 831 832 833 834 835 836 837 838 839 840 841 842 842 843 843 843 844 844 844 844 844 845 845 845 845 845 845 846 846 846 846 846 846 845 845 845 845 845 845 845 844 844 844 844 844 845 845 845 845 845 845 845 844 844 844 844 844 844 843 842 843 842 842 842 842 843 843 844 844 844 844 843 843 842
815 817 819 821 823 824 826 827 828 829 830 831 832 833 834 835 835 836 837 838 839 840 841 841 842 843 843 843 844 844 844 845 845 845 845 845 845 845 846 845 845 845 845 845 845 845 845 844 844 844 844 843 843 843 843 843 843 844 844 843 844 844 843 843 843 842 842 842 842 842 841 841 841 841 841 841 841 842 842 843 843 843 843 842 842
816 818 819 821 823 824 826 827 828 830 831 832 833 833 834 835 835 836 837 838 839 840 840 841 841 842 843 843 843 844 844 845 845 845 845 845 845 845 845 845 845 845 845 844 844 844 844 844 843 843 843 843 842 842 842 842 842 842 842 842 842 842 842 842 841 841 841 840 840 840 840 839 839 839 839 839 839 839 840 841 841 841 842 842 841
816 818 819 821 823 824 826 827 828 829 831 832 833 834 834 835 836 836 837 838 838 839 840 841 841 842 842 843 843 844 844 844 844 844 844 844 844 844 844 845 844 844 844 844 844 843 843 843 843 842 842 842 842 841 841 841 841 840 840 840 840 840 840 840 840 840 840 839 839 839 839 838 837 837 837 837 837 837 838 839 839 840 840 841 840
816 817 819 821 822 824 825 826 828 829 830 832 833 833 834 835 836 836 837 837 838 839 840 840 841 841 842 843 843 843 844 844 844 844 843 843 843 843 843 844 844 844 843 843 843 843 843 842 842 842 841 841 841 840 840 840 839 839 839 839 839 839 839 839 839 839 838 838 838 838 838 837 836 836 836 835 835 835 835 836 838 838 839 839 840
815 817 818 820 822 823 825 826 827 828 830 831 832 833 834 835 835 836 837 837 838 839 839 840 841 841 842 842 843 843 844 843 843 843 843 843 843 843 843 843 843 843 842 842 842 842 842 842 841 841 841 840 840 839 839 839 838 838 837 837 837 837 837 837 837 837 837 837 836 836 836 836 836 835 834 834 834 834 834 834 835 836 837 838 838
814 816 818 819 821 822 824 825 826 828 829 831 832 833 834 834 835 836 836 837 837 838 839 840 840 841 842 842 843 843 843 843 843 843 843 843 843 842 842 842 842 842 842 841 841 841 841 841 841 840 840 839 838 838 838 837 837 836 836 836 836 836 836 835 835 835 835 835 834 834 834 834 834 834 834 833 833 832 832 833 833 834 835 836 837
815 816 817 819 820 821 823 824 826 827 829 831 832 833 834 834 835 835 836 836 837 838 838 839 840 841 841 842 842 843 843 843 843 843 843 843 842 842 842 842 842 841 841 841 841 841 840 840 840 839 839 838 838 837 837 836 836 835 835 835 834 834 834 834 833 833 833 833 833 832 832 832 832 832 832 832 832 831 831 831 831 832 833 834 834
815 816 817 819 820 821 823 824 825 827 828 830 832 833 833 834 835 835 836 836 837 838 838 839 840 841 841 842 842 842 843 843 843 843 843 843 842 842 842 841 841 841 840 840 840 840 839 839 839 839 838 838 837 837 836 835 835 834 834 833 833 833 832 832 831 831 831 830 830 830 830 830 830 830 829 829 830 830 829 829 829 830 831 831 832
815 816 817 818 819 821 822 823 825 827 828 830 831 832 833 834 835 835 836 837 837 838 838 839 840 841 841 841 842 842 843 843 843 843 843 843 842 842 842 841 841 841 840 840 839 839 839 838 838 838 837 837 836 836 836 835 834 833 832 832 831 831 830 830 829 829 828 828 828 828 828 828 827 827 827 827 827 828 828 827 828 828 828 829 830
816 816 817 818 819 820 822 823 825 826 828 829 830 832 833 834 835 836 837 837 838 838 839 840 841 841 841 842 842 842 843 843 843 843 843 843 842 842 842 841 841 841 840 839 839 839 838 838 837 837 837 836 836 835 835 834 833 832 831 831 830 829 828 828 827 827 826 826 826 826 826 826 825 825 825 825 825 826 826 826 826 827 826 826 828
816 817 817 817 818 820 822 823 825 826 827 829 830 832 833 834 836 836 837 838 838 839 839 840 841 842 842 842 842 842 843 843 843 843 843 843 842 842 841 841 841 840 840 839 839 838 838 837 837 836 836 836 835 834 834 833 832 831 830 829 828 827 826 826 825 825 824 824 824 824 823 823 823 823 823 823 823 824 824 824 825 825 825 825 825
815 817 817 817 818 820 822 824 825 827 828 829 831 832 834 835 836 837 837 838 838 839 840 840 841 842 842 842 842 842 843 843 843 843 843 843 842 842 842 841 841 840 840 839 839 838 837 837 837 836 836 835 834 834 833 832 831 830 828 827 826 825 824 824 823 822 822 821 821 821 821 821 821 821 821 821 821 821 821 822 822 823 823 823 822
814 815 816 818 819 821 822 824 826 827 829 830 832 833 834 835 836 837 837 838 839 839 840 841 841 842 842 842 842 843 843 843 844 844 843 843 842 842 842 841 841 840 840 839 838 838 837 837 836 836 835 835 834 833 832 831 829 828 827 825 823 821 821 821 820 820 819 819 819 819 819 819 818 819 819 818 818 818 818 819 819 820 821 820 820
813 815 816 818 820 821 823 824 826 828 829 831 832 834 835 835 836 837 838 838 839 840 841 841 842 842 842 843 843 843 843 844 844 844 843 843 842 842 842 842 841 840 840 839 838 837 837 836 836 835 834 834 833 832 832 830 829 827 826 825 821 819 819 819 819 819 818 817 817 816 816 816 816 816 816 816 816 815 815 816 816 817 818 818 818
815 816 818 820 821 823 824 825 827 829 830 831 833 834 835 836 837 837 838 839 840 841 842 842 843 843 844 843 844 843 844 844 844 844 844 843 842 842 842 842 841 841 840 839 838 837 836 835 835 834 833 832 831 831 831 830 829 827 826 824 820 819 819 817 816 816 815 814 814 814 814 813 813 814 814 813 813 813 813 813 813 814 815 815 815
817 819 820 822 824 825 826 827 828 829 831 832 833 834 835 836 837 838 839 840 841 842 843 844 844 844 845 844 844 844 844 845 844 844 844 843 843 842 842 842 841 840 839 838 837 836 835 835 834 833 832 831 830 830 829 829 829 828 827 824 822 821 818 815 815 813 812 812 812 812 812 812 811 812 811 811 811 811 810 810 810 811 812 812 812
821 822 823 825 826 827 828 829 830 831 833 834 834 835 836 837 838 839 841 842 842 844 844 844 845 845 845 845 845 845 845 845 845 845 844 843 843 842 841 841 840 840 839 838 837 836 835 834 833 832 831 830 829 829 828 828 827 827 826 825 824 823 820 818 818 814 810 810 810 810 810 810 810 810 809 809 809 809 808 808 807 808 808 809 809
824 825 826 827 828 829 830 831 832 834 835 836 836 837 838 838 839 840 841 842 843 844 845 845 846 846 846 846 846 846 846 846 846 845 845 844 843 842 842 841 840 840 839 838 837 836 835 834 833 832 830 830 829 828 827 826 826 825 825 824 824 823 821 821 820 816 812 809 808 808 808 808 808 807 807 807 806 806 806 806 805 805 805 805 806
826 828 829 830 831 832 833 834 835 836 837 838 838 839 839 839 840 841 841 842 843 845 846 846 847 847 847 847 847 847 846 846 846 846 845 845 844 843 842 841 841 840 839 839 838 837 836 834 833 832 831 829 828 827 826 825 824 823 823 823 822 821 821 821 820 818 816 812 807 805 806 806 805 805 804 804 804 803 803 803 803 803 802 802 802
828 830 831 832 834 834 835 836 837 838 839 840 840 840 841 841 841 841 842 843 844 845 847 847 848 848 848 848 847 847 847 847 847 846 846 845 844 843 842 842 841 841 840 839 838 837 836 835 833 832 831 829 828 827 826 825 824 823 822 821 820 820 819 819 818 816 815 813 808 804 805 804 803 801 800 800 801 800 801 800 800 801 800 800 799
831 832 834 834 836 836 838 839 839 841 841 842 842 842 842 842 842 842 842 844 845 846 847 847 848 848 848 848 848 848 848 847 847 847 847 846 844 844 843 843 842 841 841 840 839 838 836 835 834 833 832 830 829 827 826 825 824 823 822 821 819 818 818 816 816 815 814 813 809 806 804 803 802 800 797 797 798 798 798 798 797 797 797 797 797
833 834 835 836 837 838 839 841 841 842 842 843 843 843 843 843 843 843 843 844 845 846 847 847 848 849 848 848 848 848 848 848 848 848 847 846 845 844 844 843 843 842 841 840 839 838 837 836 835 834 832 831 829 828 827 826 825 824 822 821 819 818 817 815 814 814 812 811 809 806 803 801 800 798 795 794 795 794 794 794 794 794 794 794 794
Wind_Speed
21 20 23 24 21 20 17 15 13 12 13 15 15 15 15 14 14 14 15 15 15 15 16 15 15 16 17 17 16 16 15 15 14 14 14 13 13 13 13 14 15 16 17 18 18 17 17 17 16 15 14 14 14 14 14 14 15 15 15 14 14 14 14 14 13 14 13 14 15 15 14 13 13 13 11 11 11 13 13 12 12 11 11 12 11
23 21 22 23 22 19 17 16 13 13 13 16 16 15 15 15 14 14 14 15 15 15 16 16 17 17 17 17 17 16 15 14 14 14 14 13 13 13 13 14 15 16 17 17 17 17 17 16 15 15 15 15 14 14 13 13 13 14 13 13 13 13 13 13 13 12 13 15 16 15 15 15 14 13 12 12 12 12 12 13 13 12 13 13 12
24 22 21 23 22 20 18 16 13 12 13 16 17 16 16 16 15 14 15 14 15 15 16 17 17 17 17 17 16 16 15 14 13 13 13 12 12 13 13 14 15 16 17 17 17 16 16 16 15 16 16 16 15 15 14 13 12 11 11 10 10 10 10 10 11 12 14 15 15 14 14 14 15 14 13 13 14 12 11 12 13 14 13 14 14
24 22 22 22 21 20 18 16 14 12 13 15 17 17 16 16 16 15 15 15 15 15 16 17 17 17 16 16 16 15 14 14 13 12 12 12 12 12 13 14 15 15 16 16 16 16 15 15 15 15 16 16 16 16 15 14 13 12 11 10 10 9 9 10 12 14 15 15 14 13 12 13 14 14 13 13 13 12 13 13 13 13 12 13 14
24 22 22 21 19 20 18 16 14 12 13 14 17 16 16 16 16 16 15 15 15 15 16 16 17 17 16 16 15 15 14 13 12 12 12 12 11 12 13 14 14 15 16 16 15 15 15 14 14 14 14 15 15 15 14 14 14 14 12 11 11 10 11 12 14 16 16 14 13 12 11 12 13 12 12 12 12 13 13 13 12 13 12 13 14
23 22 22 21 19 19 18 17 14 13 13 14 17 16 16 15 15 16 15 15 15 16 16 16 16 16 16 15 15 15 14 13 12 12 12 12 11 11 13 13 14 14 15 15 14 14 13 13 13 13 13 13 13 13 12 12 12 13 13 11 11 12 13 14 16 17 16 14 11 10 11 11 11 11 11 11 12 12 12 11 12 12 11 12 12
23 21 21 20 19 19 19 17 15 13 13 14 17 16 16 15 15 15 15 15 16 16 16 16 16 15 15 15 15 15 13 13 12 12 12 12 12 12 13 13 13 14 14 14 14 13 12 12 12 12 12 11 11 11 11 10 10 11 12 11 11 13 13 15 16 15 14 11 9 9 10 11 11 12 11 11 11 11 12 11 11 11 11 11 10
21 20 20 20 18 20 19 18 16 14 13 14 16 17 16 15 15 16 15 16 16 16 15 15 15 15 15 14 15 14 13 12 12 12 12 12 12 12 12 12 13 14 14 13 13 12 12 11 11 11 11 10 10 9 8 8 9 9 10 10 11 12 13 15 16 14 12 8 8 10 10 10 11 11 11 10 10 11 11 11 11 11 11 10 9
21 19 19 18 18 20 20 18 16 14 14 15 17 17 17 16 16 17 16 17 18 17 15 15 15 15 14 14 13 13 13 12 12 13 13 13 13 12 12 12 12 12 13 12 12 12 11 10 10 10 10 9 9 9 8 8 7 7 8 9 9 11 14 15 14 12 10 8 9 9 9 10 11 11 9 9 9 9 8 8 10 9 9 9 9
21 19 18 17 19 20 19 18 17 15 15 16 17 18 17 16 16 17 17 18 18 17 15 15 15 15 15 14 14 14 14 13 13 14 13 13 13 12 12 11 11 11 11 11 11 11 10 9 9 9 8 9 9 10 10 8 6 6 6 8 8 10 12 14 13 9 7 8 9 10 10 10 10 10 9 9 9 9 8 8 8 7 8 9 9
20 18 17 18 19 20 19 18 17 16 16 16 17 18 17 16 16 16 17 18 18 16 15 15 14 15 15 14 14 14 14 13 13 14 13 13 12 11 11 10 9 8 9 9 9 9 9 8 8 7 7 8 9 10 10 8 7 6 6 6 7 9 10 11 10 7 7 9 10 10 11 11 10 10 9 9 9 8 8 7 7 7 7 8 8
18 17 17 19 18 19 19 18 17 16 16 16 17 17 17 17 16 16 16 18 17 15 15 15 15 15 15 15 15 15 14 14 13 13 13 12 11 10 9 7 7 6 6 7 7 7 7 7 7 7 7 8 9 10 10 9 8 7 7 6 7 8 10 10 7 5 8 9 9 9 9 10 10 9 8 8 7 6 5 6 6 5 5 6 6
18 18 18 18 17 18 19 18 17 16 16 16 16 17 17 17 16 15 16 18 17 15 15 15 15 15 15 15 15 15 14 14 13 12 12 11 9 8 6 5 5 4 4 5 6 6 6 6 7 7 7 7 8 9 9 9 9 8 7 7 7 8 10 10 6 5 7 7 7 8 8 9 8 8 7 7 6 5 4 4 4 3 2 3 4
19 19 18 18 18 17 17 17 16 15 16 16 16 16 17 17 15 15 17 18 16 15 15 15 15 15 15 15 15 14 13 13 12 12 11 10 8 6 6 5 4 4 4 5 6 6 6 7 8 8 7 7 7 8 9 9 8 8 7 7 7 9 11 9 6 6 6 7 7 7 7 7 6 7 6 5 5 5 4 3 3 3 3 3 4
19 19 19 19 18 16 16 16 16 15 15 16 16 17 17 17 16 17 18 17 16 15 15 15 15 14 14 14 14 13 13 12 11 11 10 9 8 7 6 6 5 4 4 5 6 6 8 9 9 8 7 7 7 8 8 8 8 8 8 7 7 9 10 6 4 5 5 6 6 6 7 5 5 6 5 4 4 4 5 4 4 4 4 5 5
19 20 20 19 19 17 15 14 14 15 15 15 15 16 17 16 17 18 17 16 16 15 14 14 14 14 14 13 13 12 11 11 10 11 10 10 8 7 7 7 6 4 4 5 6 7 9 10 9 8 7 6 6 8 8 8 7 7 8 8 8 8 10 7 3 4 4 5 5 5 6 5 5 6 5 4 4 4 4 4 4 4 5 5 5
19 19 18 19 19 17 16 13 13 14 14 14 14 14 15 17 18 17 16 15 15 15 14 14 14 13 13 12 12 11 10 10 10 11 11 11 9 8 7 7 7 6 5 5 7 9 12 11 10 8 7 6 6 7 7 7 7 7 7 7 8 8 10 8 3 3 4 5 5 5 6 4 4 5 4 4 4 3 3 3 4 3 3 4 5
18 17 17 18 17 17 17 15 14 14 13 12 11 13 15 17 17 16 15 15 14 14 14 13 13 12 12 12 11 10 10 9 10 10 11 11 10 9 8 7 7 7 6 6 8 11 12 11 10 8 7 6 6 6 6 6 6 6 6 7 8 8 10 9 3 3 4 4 4 5 4 3 5 7 5 5 4 2 3 2 2 2 2 3 4
17 16 16 17 16 16 16 16 14 13 13 12 11 12 14 16 15 15 15 14 14 13 13 13 12 12 11 11 10 10 9 8 8 9 10 10 10 9 8 8 8 7 6 6 7 10 11 11 10 8 6 5 5 5 5 5 6 5 6 6 7 8 9 6 3 3 4 3 3 4 2 3 7 7 5 5 3 2 3 1 1 2 2 3 3
16 16 15 15 15 14 15 15 15 13 13 12 11 12 12 14 14 14 14 14 14 13 12 12 11 11 11 10 9 9 9 8 7 8 8 9 9 8 9 9 8 7 6 6 7 9 10 10 9 8 6 5 4 4 4 4 5 5 5 5 6 8 6 3 2 3 3 2 3 2 2 4 7 5 4 4 3 2 2 2 1 2 1 1 1
14 15 15 14 14 13 14 14 14 13 12 12 12 12 11 12 12 13 14 13 13 12 11 11 9 9 9 9 8 9 8 7 7 7 6 6 6 7 8 8 8 7 6 6 7 7 8 8 8 7 6 4 4 4 4 5 6 6 4 4 7 6 3 2 2 2 3 3 3 0 1 5 7 4 3 3 3 2 3 2 1 0 1 1 1
14 14 14 13 13 13 13 12 13 12 12 12 12 11 10 11 11 12 12 12 12 11 10 10 9 9 8 7 7 8 7 6 7 6 5 5 5 5 6 6 6 7 7 6 5 6 7 7 7 7 6 4 3 4 5 5 5 5 4 4 5 2 1 1 1 2 2 2 2 1 1 6 6 4 3 2 3 3 2 2 2 2 2 1 1
15 14 13 13 12 12 12 11 12 12 12 11 11 11 10 11 11 12 11 11 11 10 10 9 9 9 7 6 6 6 5 4 4 4 5 3 3 4 4 4 5 6 7 7 5 3 5 6 6 6 7 4 2 3 5 5 5 5 5 4 3 2 2 1 1 1 1 2 1 2 2 6 6 4 4 3 3 4 2 2 1 2 2 2 1
15 13 13 12 12 12 12 11 12 12 11 11 11 11 10 10 11 11 11 10 10 9 10 9 8 8 7 6 6 6 5 4 3 3 4 3 2 3 3 4 3 4 6 5 4 4 3 4 5 5 5 4 3 4 4 5 5 5 5 4 4 3 2 2 1 1 1 3 1 3 2 4 5 5 4 3 4 4 2 2 2 2 3 3 2
15 14 13 12 12 12 12 12 12 12 11 10 11 10 10 10 10 10 10 9 9 8 8 7 7 7 5 5 5 5 4 4 3 3 3 4 3 3 3 4 3 2 4 4 2 3 3 3 4 5 6 6 5 4 3 4 4 5 5 5 4 3 3 2 1 1 1 1 3 3 1 3 4 5 4 4 5 5 3 3 3 4 4 3 3
15 14 13 13 12 12 12 12 12 11 10 10 10 10 10 10 10 10 10 10 9 8 7 6 6 5 5 5 5 5 4 4 5 5 4 4 4 4 3 4 3 3 3 3 3 2 3 3 3 5 7 7 6 5 5 4 5 5 5 5 4 4 3 3 2 2 2 2 4 4 1 2 4 5 5 5 6 5 3 3 4 6 6 4 4
14 13 13 13 12 11 11 11 11 11 10 10 10 10 10 10 10 9 9 10 9 8 7 6 6 5 5 5 5 5 5 5 5 5 5 4 4 4 4 4 3 3 3 2 2 2 2 2 3 4 6 8 8 7 6 6 6 5 5 5 5 4 4 4 4 4 3 3 5 6 4 3 4 5 6 5 7 6 4 4 5 6 6 4 5
13 13 12 12 12 11 11 11 10 10 10 10 11 10 10 10 10 10 10 9 9 8 7 7 6 6 5 5 6 6 5 5 5 4 3 3 3 2 3 3 2 2 2 2 2 2 3 3 2 3 4 7 9 9 8 7 7 6 6 6 5 5 5 5 5 5 5 4 6 7 6 5 5 6 6 7 7 7 6 6 6 6 5 4 5
14 14 12 12 12 12 11 10 10 10 10 11 10 10 10 11 11 10 10 9 9 8 8 8 7 6 6 6 6 6 5 3 3 2 2 2 2 2 2 1 1 1 1 1 1 2 2 3 3 3 4 5 8 10 10 9 8 8 7 7 7 7 6 6 6 6 6 6 6 8 9 7 7 7 7 8 8 6 7 8 7 7 6 6 6
14 14 13 13 12 12 11 10 10 10 10 11 10 11 11 11 11 11 11 10 9 9 8 8 7 6 6 5 4 3 3 2 1 1 1 1 1 1 1 1 0 1 1 2 2 2 2 3 4 5 5 5 6 8 10 10 10 10 9 8 8 8 8 8 8 7 7 7 7 8 11 10 8 9 9 9 10 9 9 9 9 8 7 8 8
14 14 13 13 13 13 12 10 10 10 10 10 10 11 11 11 10 10 11 10 9 8 7 7 6 5 4 3 3 2 2 1 1 1 1 1 1 1 0 0 1 1 1 2 2 3 3 4 4 5 5 5 5 6 9 10 11 11 11 10 9 9 9 9 9 9 8 8 8 8 11 13 11 11 11 10 10 10 11 10 11 10 8 9 10
14 14 13 13 14 13 12 11 10 11 11 10 10 10 11 10 10 10 10 9 9 8 7 6 5 4 4 2 2 2 2 2 1 1 1 2 2 2 1 1 1 1 2 2 2 3 4 4 5 5 6 6 6 7 8 10 11 12 12 11 10 10 9 10 10 10 10 9 9 9 10 12 13 13 13 13 12 11 12 12 11 11 10 10 11
15 14 14 14 15 13 12 12 11 12 12 11 11 11 11 10 10 9 9 9 8 7 6 6 5 4 3 3 2 2 1 1 2 1 2 2 2 1 1 1 1 1 1 2 2 3 3 4 5 6 6 7 8 8 8 9 11 12 12 11 10 10 10 10 11 10 11 10 10 10 10 11 13 14 14 15 14 13 12 13 13 12 13 13 12
15 14 15 16 15 14 13 11 11 12 12 11 11 10 10 9 9 9 8 8 7 6 6 5 4 3 3 3 2 2 1 1 2 1 1 1 1 2 1 1 0 0 1 1 2 3 3 3 4 5 6 7 8 9 9 10 11 12 12 12 12 12 11 11 11 11 11 11 11 11 11 11 12 13 14 15 16 15 14 14 15 14 14 14 13
16 16 16 17 15 14 13 11 11 12 12 11 10 9 8 8 8 7 7 7 6 6 6 5 5 4 4 4 3 2 1 2 2 1 1 1 1 1 1 1 1 1 0 1 1 2 3 3 3 4 6 8 9 9 10 10 11 12 12 12 12 12 12 12 11 12 12 12 11 11 11 12 12 12 13 13 14 16 16 15 15 15 15 16 14
15 17 17 16 16 14 13 13 12 12 12 10 10 9 8 7 7 6 6 6 6 6 5 5 5 5 5 4 3 2 2 2 2 1 0 1 1 1 1 1 1 0 0 0 1 1 2 3 3 4 5 7 9 9 10 11 11 12 13 13 13 13 13 14 13 13 12 12 12 11 12 13 13 13 14 14 14 15 15 15 15 16 16 17 16
16 17 17 16 16 15 13 13 13 12 11 10 10 8 8 6 6 6 6 6 6 6 5 5 5 4 4 4 3 3 2 2 2 1 0 1 1 1 1 1 1 1 1 1 1 1 2 2 3 3 5 6 8 9 9 10 11 11 12 13 13 14 14 14 14 13 12 12 13 13 13 13 14 15 16 16 16 15 14 15 16 16 17 18 18
16 16 17 17 16 15 13 13 12 11 11 10 9 8 8 7 7 7 7 7 7 6 5 5 5 4 3 4 4 4 3 3 2 1 1 1 1 1 1 1 2 2 2 1 1 2 2 3 3 4 5 6 7 8 8 9 10 11 12 12 12 13 14 14 13 13 13 13 14 14 14 14 14 16 17 16 16 15 14 15 15 16 18 19 19
14 14 16 15 15 14 13 13 12 12 10 9 8 8 8 8 8 8 7 7 6 6 5 4 4 3 4 5 4 4 4 4 3 2 2 2 1 1 1 1 2 2 2 2 1 2 2 3 4 4 5 6 7 8 9 9 10 11 11 12 12 12 13 13 13 13 13 13 14 14 14 14 14 15 17 17 16 15 15 15 14 14 17 19 20
15 14 15 15 15 15 14 13 12 11 10 9 9 8 8 8 8 7 6 6 5 5 5 4 4 4 5 5 4 4 4 4 3 2 3 2 2 2 1 1 1 2 3 3 2 3 3 4 4 5 5 6 7 8 8 9 10 11 12 13 13 13 13 13 13 13 13 13 13 13 13 14 15 15 16 18 17 16 17 16 15 15 15 16 18
16 15 16 15 15 14 13 13 11 10 9 9 8 7 7 7 7 6 6 6 6 6 7 6 6 6 6 5 4 4 3 3 3 3 3 3 2 2 1 1 2 2 3 3 3 4 4 4 5 6 5 6 7 7 7 8 9 10 10 11 13 14 14 14 14 14 13 13 13 13 13 13 14 14 15 16 16 18 19 17 17 17 15 15 16
15 15 15 15 14 13 13 12 11 10 9 8 8 7 6 6 6 6 6 6 6 6 7 8 7 7 7 5 3 3 3 3 3 3 4 3 3 3 3 3 3 3 4 3 4 4 4 5 5 6 6 6 7 7 7 8 8 8 9 9 11 11 12 14 15 14 14 14 13 14 13 13 15 15 14 15 15 17 18 18 20 20 17 17 17
16 15 15 14 14 13 13 12 12 11 10 9 8 8 8 8 7 7 7 7 7 7 7 8 7 6 6 5 4 4 4 4 4 4 4 4 4 4 4 4 4 4 4 4 4 4 4 5 5 6 6 7 8 7 6 8 8 9 8 7 7 7 7 10 12 13 13 13 13 14 14 14 16 15 15 15 16 18 19 19 21 21 18 18 20
16 16 16 14 13 13 13 13 12 11 11 10 9 8 9 9 9 8 8 9 8 7 7 8 7 6 5 5 5 4 5 5 5 6 5 5 5 5 4 4 4 5 5 5 5 5 5 5 5 5 6 8 8 6 6 7 8 9 7 6 7 6 6 5 6 9 11 11 12 13 13 14 14 14 15 16 17 17 18 19 20 20 19 19 22
16 16 16 15 15 15 14 14 13 12 10 9 8 8 8 9 9 9 9 9 9 8 7 7 6 5 6 6 6 5 6 6 7 7 6 6 6 5 5 5 6 6 7 7 6 6 6 6 6 6 6 8 8 7 7 7 8 9 8 7 6 5 5 8 10 9 8 9 10 12 13 14 13 13 14 16 16 15 15 17 19 20 20 20 21
17 18 17 16 17 16 15 15 14 13 11 9 8 7 7 8 9 9 9 8 8 8 7 6 6 6 6 6 6 6 5 5 6 6 6 6 6 5 5 6 7 7 8 8 7 7 7 7 8 8 7 7 8 9 8 6 7 9 11 10 9 7 8 10 9 7 8 10 11 11 12 13 13 13 14 15 16 16 15 15 18 21 21 22 21
17 18 17 16 16 15 15 14 14 13 11 10 9 8 8 8 8 8 7 6 8 7 6 6 7 6 6 5 5 6 5 5 5 6 7 7 7 6 6 7 7 7 7 7 7 7 8 8 9 10 10 9 9 10 10 8 8 8 9 11 12 12 12 11 9 7 8 10 11 11 12 13 13 13 14 15 16 16 16 15 16 18 19 22 24
16 16 16 16 15 15 15 14 14 13 11 10 9 8 9 9 8 8 8 7 8 8 6 6 6 5 4 4 4 5 5 6 6 6 7 8 8 7 6 6 7 8 8 8 8 9 11 10 9 10 11 10 10 11 11 11 10 10 9 10 12 12 12 13 14 13 9 8 11 11 11 14 15 14 14 15 15 16 17 16 16 17 17 19 22
16 16 16 16 15 15 15 15 14 13 12 11 10 9 9 8 8 9 9 9 9 8 6 6 4 4 3 3 3 3 4 5 6 7 7 8 7 7 7 8 9 9 9 9 10 11 12 12 11 11 13 12 11 11 11 11 11 12 12 12 12 12 11 12 14 14 11 10 11 10 9 13 15 15 15 14 14 15 16 17 17 17 17 17 20
15 16 15 15 15 15 15 15 14 12 11 11 11 10 9 8 8 8 9 8 7 6 5 4 2 2 3 3 3 4 4 5 6 7 7 7 7 8 8 9 9 9 9 10 10 11 11 11 11 12 14 14 13 12 12 13 13 13 13 13 14 13 11 10 11 12 11 11 10 11 12 12 11 14 13 11 13 15 15 16 17 18 18 17 19
15 16 16 15 15 15 15 15 13 12 11 10 10 10 9 8 7 7 7 6 5 4 3 3 3 3 3 3 4 4 5 5 6 6 7 7 7 7 8 9 10 9 10 10 11 12 11 10 11 12 13 13 13 14 14 13 15 15 15 15 15 14 12 11 12 12 11 11 10 10 13 13 11 15 15 13 14 15 16 16 17 18 19 18 18
Wind_Direction
153 151 150 160 156 153 147 141 138 130 142 148 141 131 131 131 133 135 133 133 132 129 127 127 123 122 118 117 115 114 115 115 115 110 107 106 109 109 112 114 116 116 116 116 116 113 108 106 106 106 105 104 103 102 101 101 100 99 99 101 103 103 104 104 105 106 100 93 90 87 86 85 85 83 80 71 70 83 85 85 77 66 63 57 55
151 149 149 158 155 152 146 141 136 128 140 148 145 133 132 131 130 131 130 130 129 127 126 125 123 122 120 118 115 114 117 117 113 109 108 108 110 109 112 114 115 116 115 115 113 111 108 108 107 107 107 106 105 103 102 101 102 104 104 105 106 105 101 101 101 104 103 96 92 91 91 87 86 83 81 75 70 80 92 94 84 72 66 58 56
146 146 146 155 154 150 145 141 134 127 135 146 148 139 134 132 131 129 127 128 126 126 123 123 123 121 121 120 117 119 120 116 110 108 109 109 111 110 112 113 114 114 114 113 111 110 110 110 108 107 105 104 103 101 98 96 100 106 110 110 108 108 105 104 102 103 100 91 84 86 91 87 82 81 79 75 70 72 84 89 79 71 70 65 61
143 142 144 152 152 148 145 141 134 127 133 144 145 139 136 133 132 130 128 127 125 124 122 123 123 123 123 123 122 120 116 112 109 109 110 109 109 111 113 113 114 114 113 113 111 111 111 111 109 108 104 101 100 96 92 88 88 90 101 107 107 111 109 107 106 103 96 87 82 82 88 86 81 81 80 77 72 69 72 76 74 73 72 68 66
142 141 143 147 148 148 146 142 136 129 132 141 141 135 134 134 133 131 130 128 126 126 126 126 127 128 125 125 123 117 113 112 111 111 110 107 107 111 112 112 115 116 114 113 111 112 112 112 110 108 105 101 99 94 88 84 81 77 85 102 109 110 108 109 108 102 97 92 90 90 92 91 85 82 81 79 74 73 73 74 74 73 67 61 64
142 142 143 144 146 148 148 144 138 130 131 139 138 134 134 134 133 132 130 128 127 124 124 125 127 127 125 125 121 117 116 113 113 113 109 106 106 106 108 111 114 113 112 113 112 112 113 112 109 107 104 100 95 91 86 81 79 75 77 93 107 111 113 113 107 100 94 91 91 94 93 92 90 83 82 80 77 77 77 77 76 74 73 64 60
142 142 142 144 146 149 149 145 139 130 130 138 137 134 135 133 132 131 129 126 122 119 119 120 121 121 122 122 120 120 119 116 115 113 109 107 107 105 107 112 113 113 112 113 113 111 110 109 109 108 104 100 94 91 89 81 79 79 78 90 107 115 118 113 104 95 87 87 94 97 94 93 92 87 84 85 86 82 74 78 83 81 82 76 65
143 142 142 143 148 153 149 145 139 129 131 137 136 133 133 131 130 129 127 126 122 122 122 122 123 124 123 121 121 121 120 118 116 113 109 106 105 105 106 108 112 115 114 112 111 111 109 109 110 109 107 102 97 96 93 84 84 86 83 93 111 119 116 107 97 88 84 91 95 94 95 96 95 91 86 85 87 81 66 60 68 74 77 77 77
145 142 141 141 148 152 147 146 138 130 132 135 135 133 133 131 129 129 128 129 128 126 125 126 128 128 128 126 124 123 121 118 115 112 108 104 102 102 102 103 109 114 115 114 113 113 110 108 108 109 108 98 88 86 83 84 93 95 90 95 112 121 111 101 91 83 86 95 95 94 95 96 97 95 90 86 84 86 84 68 63 69 75 79 82
144 143 141 139 146 149 146 144 136 132 133 133 135 134 135 134 131 131 132 133 131 128 127 129 129 129 129 126 125 124 121 116 112 108 104 103 102 102 100 100 105 109 114 116 114 111 107 108 108 108 103 89 77 73 73 81 95 103 99 97 111 121 110 99 91 84 91 95 93 95 97 96 96 97 95 90 88 93 106 106 92 86 78 75 74
141 145 139 140 148 148 145 141 136 134 132 133 135 135 136 136 135 135 135 134 131 129 130 131 130 128 126 125 123 122 120 115 110 106 103 102 101 101 98 99 103 107 115 117 114 109 112 116 113 110 99 82 72 68 69 78 93 104 101 98 107 116 108 94 87 87 99 97 96 99 99 96 96 102 100 95 93 93 100 101 95 91 83 77 71
142 142 135 142 151 147 143 139 135 134 132 133 134 135 137 138 138 137 138 134 131 131 132 132 131 128 126 125 123 120 118 114 110 106 103 100 98 96 95 100 104 109 121 122 118 114 117 119 118 114 99 81 70 65 71 81 90 99 100 100 104 112 109 92 85 98 102 101 99 98 98 96 100 108 102 97 97 91 93 91 81 82 88 83 71
144 139 133 140 149 145 142 138 134 134 132 133 133 136 138 139 139 138 139 133 132 134 134 134 131 130 127 125 123 119 116 113 110 106 104 102 99 96 95 99 108 117 127 132 125 122 124 125 129 120 103 86 71 64 75 85 88 95 99 100 103 114 109 92 95 110 100 102 98 96 96 95 104 112 103 97 95 87 81 81 76 65 75 74 63
144 140 136 137 143 143 141 138 135 133 132 131 134 136 137 139 139 139 138 134 134 137 137 135 132 130 128 125 122 120 116 112 110 108 106 103 97 92 91 92 102 118 132 142 139 139 140 140 140 124 109 91 72 67 79 88 88 92 95 98 104 114 107 89 100 112 101 103 99 99 95 96 119 121 107 96 92 91 80 69 57 38 42 58 61
144 142 139 137 139 141 140 138 135 133 132 131 132 135 138 140 140 139 137 136 138 139 139 136 133 131 129 127 124 122 118 114 111 108 103 97 91 84 82 81 81 101 128 146 148 151 151 148 141 125 112 93 75 69 80 91 90 91 91 94 99 113 114 95 102 111 107 108 100 102 97 109 144 126 106 94 84 85 78 68 65 63 65 72 74
145 143 139 138 139 140 139 137 135 134 132 130 133 138 141 142 140 137 137 140 142 141 140 139 136 133 132 128 124 121 117 114 108 103 96 89 88 84 77 70 65 79 113 137 144 149 152 147 138 126 112 93 77 69 78 91 93 92 89 89 89 107 122 111 104 113 112 112 105 104 99 116 146 131 121 107 84 79 83 80 77 77 75 76 80
146 144 140 141 141 141 140 138 138 134 132 131 134 138 141 144 141 138 141 144 145 142 141 140 138 136 131 124 121 118 115 111 105 98 90 86 87 88 83 72 64 66 92 128 140 145 147 143 137 129 116 94 79 71 76 91 95 91 86 87 83 97 117 109 97 111 110 114 112 102 107 129 133 123 126 119 105 94 86 76 75 79 74 75 83
145 144 143 145 144 144 141 141 141 134 133 131 131 136 140 146 144 142 145 145 145 144 142 140 140 137 129 124 120 117 114 109 105 98 90 88 84 84 85 75 66 63 77 116 141 147 147 145 138 131 119 99 83 76 76 94 103 94 87 84 79 91 105 100 95 110 110 119 114 101 128 171 126 115 121 118 115 105 85 69 79 89 73 74 82
146 146 148 148 147 147 143 142 142 140 139 134 132 136 140 146 148 145 147 146 145 145 142 140 139 137 130 125 124 122 117 110 107 102 95 90 84 80 82 79 71 62 67 102 140 151 150 147 140 134 124 106 91 85 83 101 114 108 95 84 80 82 79 77 99 112 109 119 110 107 176 181 124 126 134 125 123 114 102 114 113 79 58 65 79
148 148 150 150 150 148 145 144 145 146 143 139 136 137 142 147 151 150 149 148 144 144 142 139 139 138 132 126 129 130 119 116 116 107 100 91 92 91 85 88 84 71 64 92 133 153 155 151 144 141 130 113 98 94 97 113 127 123 110 93 77 67 48 50 99 99 96 109 112 119 245 145 125 136 138 130 135 141 145 161 123 65 49 64 91
148 149 151 152 151 147 145 144 146 146 141 138 137 138 142 145 150 152 151 151 145 142 140 140 141 138 134 133 132 126 116 118 115 104 103 97 98 97 91 94 91 85 74 88 128 153 159 155 152 147 138 124 103 104 114 122 132 133 134 109 79 69 51 65 83 78 86 100 110 153 249 130 130 149 155 153 148 164 180 177 166 161 186 219 250
151 152 152 152 149 146 146 146 146 142 136 135 135 137 138 140 146 151 152 152 148 144 142 145 145 141 141 142 129 119 115 113 108 102 111 111 105 100 98 103 95 93 85 85 119 156 169 164 160 155 149 132 100 121 134 134 138 140 146 117 94 105 118 83 61 71 80 95 105 303 153 130 137 167 216 198 171 206 205 192 182 195 202 194 273
155 155 151 151 149 147 145 142 142 138 136 135 137 140 139 141 145 151 154 149 147 150 148 148 146 143 144 140 124 120 119 110 112 113 115 116 105 96 96 103 97 91 88 77 76 130 175 177 174 165 154 141 122 158 161 157 155 150 156 146 154 186 154 137 135 91 75 92 109 298 119 139 147 165 241 229 206 247 224 206 207 202 209 180 209
154 153 150 150 146 145 140 138 142 140 140 139 139 142 141 145 145 151 157 150 150 153 150 149 143 140 140 135 124 122 120 110 112 104 107 118 114 103 103 106 101 85 90 83 50 65 130 181 194 181 169 185 204 197 183 177 177 171 183 195 199 196 184 201 179 147 109 97 203 268 119 151 159 160 230 240 236 268 216 199 240 221 213 192 201
150 150 151 151 146 145 141 140 143 142 144 141 141 143 142 145 145 151 156 156 159 154 149 149 144 136 136 137 130 128 126 117 116 115 121 129 130 124 126 123 128 119 109 126 124 85 107 164 198 199 200 216 219 212 207 198 194 193 197 201 202 204 208 218 211 213 193 140 230 259 150 164 169 169 225 242 247 265 218 208 238 234 238 212 195
152 151 149 149 149 148 145 143 142 142 143 142 142 142 143 144 145 152 152 151 158 155 149 153 151 143 145 146 141 139 138 131 131 135 131 128 130 130 135 133 145 162 146 154 158 139 147 162 186 204 211 217 220 220 220 216 215 207 200 197 202 214 225 230 230 239 233 216 252 277 264 199 182 184 214 239 258 262 222 232 244 241 260 238 196
153 150 146 146 147 147 145 143 142 142 142 144 143 141 144 143 144 149 146 142 151 155 151 153 155 151 153 153 150 149 149 148 144 137 127 122 124 127 134 138 147 157 167 181 172 174 174 167 185 205 214 218 221 223 220 219 222 218 209 205 209 216 231 242 238 243 244 234 258 279 282 249 218 203 214 232 252 250 228 247 246 246 267 242 200
149 146 146 145 147 146 144 142 141 142 142 144 142 140 140 141 143 143 141 141 144 149 148 147 146 146 149 149 149 153 155 154 146 133 119 107 97 98 107 126 143 143 157 186 195 204 203 200 202 209 217 219 221 223 224 220 218 224 222 218 223 228 235 245 246 247 248 240 249 268 279 266 247 228 219 223 235 240 237 241 241 247 256 230 209
146 146 147 145 147 146 144 144 143 141 142 144 140 138 139 139 141 139 141 145 142 143 146 143 140 143 146 147 150 154 154 145 127 109 90 78 67 73 81 101 140 156 179 195 222 230 229 224 223 227 225 223 224 223 225 223 217 224 226 224 233 240 245 248 248 247 246 245 243 254 265 264 254 246 228 218 220 227 242 241 236 245 242 226 219
146 147 147 146 148 147 146 144 143 142 142 142 138 138 139 137 138 140 142 144 143 144 144 142 142 143 142 143 147 147 140 107 77 73 91 120 98 80 82 91 157 219 224 226 236 246 254 246 237 239 236 234 229 222 225 227 224 225 226 229 237 247 252 252 250 249 246 247 242 246 260 262 251 249 244 228 215 216 237 239 229 238 241 223 218
148 149 148 147 147 147 146 144 142 142 141 139 137 138 137 135 138 140 138 137 140 142 140 139 138 138 135 134 125 115 102 68 59 91 161 167 162 176 153 135 245 236 233 238 245 253 263 261 254 250 246 245 242 230 229 232 232 232 231 233 240 249 254 255 254 254 251 252 247 242 254 261 254 247 246 241 227 219 224 230 229 236 244 223 214
151 151 149 147 147 147 146 145 144 142 141 138 136 137 137 137 140 139 135 136 140 141 140 139 136 131 128 124 104 92 81 67 68 91 135 149 146 154 135 129 195 230 240 245 255 259 262 266 265 260 254 250 249 244 237 238 238 239 240 238 240 246 252 258 259 259 259 258 257 250 246 253 256 251 246 243 238 228 217 216 224 232 237 228 221
153 152 148 148 146 145 145 146 145 142 142 141 140 140 139 139 141 137 136 138 139 138 140 136 131 123 118 112 95 89 82 78 90 100 113 123 123 121 108 110 139 191 220 236 256 258 259 265 266 264 258 252 250 249 244 242 242 243 245 244 243 245 248 255 260 261 262 262 261 258 249 244 249 252 252 248 241 236 224 213 215 222 228 227 225
151 151 149 148 144 144 145 145 144 142 141 140 140 139 139 139 136 133 134 136 137 138 139 133 129 132 124 116 102 103 102 77 74 82 93 98 107 105 91 79 94 194 203 222 250 254 256 264 266 267 264 260 256 253 249 248 248 247 247 247 247 249 249 252 257 260 261 263 262 256 251 244 241 245 250 252 246 241 233 221 214 215 222 224 222
148 149 149 148 145 144 144 145 146 141 136 134 136 138 139 137 133 134 137 139 142 143 140 136 135 138 131 119 108 112 118 103 83 64 79 79 79 91 83 56 344 325 267 224 247 255 258 266 270 271 269 266 263 259 257 255 253 252 252 252 251 252 253 252 254 258 257 258 258 253 249 247 244 243 244 248 252 249 241 231 221 213 218 223 219
150 148 147 149 147 144 144 146 144 136 130 131 136 141 140 137 135 135 135 136 139 138 133 131 130 129 127 117 110 112 113 109 96 78 54 16 348 42 72 30 337 327 277 268 254 258 268 270 269 275 275 271 270 267 265 262 259 257 255 254 254 254 256 257 255 256 254 251 254 253 248 246 243 242 240 242 249 253 248 239 229 218 217 222 220
153 149 147 150 148 145 146 144 138 133 131 133 136 139 136 133 131 128 129 131 128 126 127 129 128 125 124 117 114 112 101 93 82 67 9 343 354 24 48 8 331 303 306 344 347 308 306 296 283 277 277 278 278 276 273 270 268 266 262 258 257 256 256 258 259 256 253 251 252 251 248 246 242 240 239 238 241 248 253 249 239 227 220 222 222
150 149 145 146 148 145 145 142 138 138 135 134 135 132 130 128 125 123 124 124 123 125 128 128 125 121 117 114 113 109 98 84 61 36 11 352 3 18 26 357 332 315 323 343 325 309 316 316 309 297 292 291 287 285 282 279 279 277 273 268 263 262 259 258 259 256 254 255 254 252 250 248 244 242 242 239 238 241 248 252 247 236 228 226 225
144 144 142 144 145 142 141 141 142 142 139 136 133 129 129 128 124 122 120 120 123 124 122 121 116 113 115 114 109 100 85 65 44 38 35 18 17 5 343 337 325 308 310 309 307 316 322 320 311 304 304 295 288 288 285 282 283 280 279 279 275 269 264 259 258 257 256 256 255 253 251 249 247 245 247 246 241 238 239 243 242 234 232 234 231
136 139 141 143 141 138 139 141 143 142 139 137 134 133 130 125 124 126 125 123 123 118 111 108 105 100 106 107 99 91 75 52 35 44 44 28 23 7 342 328 306 296 308 318 330 331 329 327 320 318 316 302 290 287 287 285 283 279 277 276 274 270 264 257 253 252 254 256 256 255 252 251 250 247 249 250 244 238 237 236 235 231 229 238 240
135 139 139 139 136 136 137 138 139 136 134 133 128 126 124 124 130 133 131 122 114 109 101 97 98 97 102 102 92 82 65 41 33 39 35 22 16 4 348 332 309 306 322 336 333 325 322 319 317 316 312 307 301 295 296 292 285 283 280 273 272 268 259 252 249 247 247 251 252 254 253 252 253 249 247 247 243 239 238 234 232 233 229 230 240
129 130 128 129 128 129 130 129 128 123 122 120 115 112 110 119 130 126 120 110 99 100 99 97 99 99 100 98 89 83 73 61 48 22 10 8 6 11 21 4 344 332 329 328 321 313 307 301 302 302 300 301 301 301 303 297 289 293 294 286 280 273 257 245 246 247 245 246 246 248 250 251 253 252 249 246 242 238 238 237 234 236 234 226 225
113 116 115 116 119 119 118 116 113 113 114 112 111 111 106 109 113 113 112 105 94 92 96 97 96 94 90 83 81 82 74 59 37 10 2 2 5 15 21 4 349 340 325 316 310 305 299 297 297 296 294 292 290 293 297 297 300 301 294 287 289 293 275 246 240 244 245 244 242 243 245 247 249 251 250 246 244 243 242 242 240 236 233 229 226
104 109 108 108 108 108 108 107 104 104 107 106 107 110 108 105 103 101 100 99 96 92 94 94 91 88 79 69 63 58 51 41 30 22 13 359 2 13 14 1 350 341 325 311 303 301 296 290 289 284 282 288 292 292 286 284 295 302 298 297 302 299 288 282 280 270 259 249 244 244 243 245 247 248 249 246 246 249 248 244 243 239 233 234 237
99 101 102 104 103 102 102 102 98 94 95 98 103 109 113 114 110 103 96 97 99 95 94 91 87 89 81 72 63 53 46 36 25 21 11 358 0 1 359 0 354 347 337 327 321 320 317 309 302 292 283 289 294 291 284 279 284 288 284 292 306 297 296 322 321 301 282 268 259 255 249 245 246 244 246 248 246 247 248 244 240 239 236 236 239
95 97 101 104 105 103 100 98 94 90 88 89 93 100 108 112 111 105 101 106 105 94 85 82 87 91 85 80 73 63 51 34 23 19 10 1 359 351 352 353 348 349 345 339 342 341 336 328 317 309 301 296 294 292 290 288 283 275 268 273 285 283 294 313 314 305 299 287 273 267 263 256 252 246 244 247 247 245 247 246 241 239 237 235 235
96 97 100 103 101 98 96 94 90 86 85 86 89 94 99 100 101 99 96 102 102 96 88 87 93 90 84 84 74 64 55 44 32 24 15 6 357 349 351 349 344 354 357 350 354 348 338 330 319 316 314 309 303 301 304 302 289 278 268 272 278 277 282 293 294 299 303 292 280 276 276 270 260 253 253 251 249 247 245 243 241 239 238 236 236
97 96 98 98 97 96 95 93 89 86 84 84 84 88 95 98 102 102 97 96 101 102 97 93 93 85 81 83 71 60 51 44 32 21 13 3 354 346 353 360 358 4 4 358 357 349 341 335 329 324 321 316 311 307 309 309 302 298 291 284 284 281 282 283 284 289 294 292 290 284 280 279 267 252 250 253 252 250 247 243 240 239 239 239 238
101 101 100 99 98 97 95 93 90 89 87 85 83 83 89 97 105 112 113 113 114 115 111 105 99 92 86 75 68 54 36 31 21 16 11 5 7 12 17 15 8 4 357 351 350 346 340 338 339 337 331 326 321 315 314 314 310 308 304 299 296 292 290 287 282 281 279 281 292 294 292 292 281 260 244 243 250 252 251 249 244 242 241 239 239
106 106 104 101 98 94 91 88 86 85 84 84 84 83 83 90 100 111 119 122 123 125 125 114 89 71 62 42 41 33 17 12 11 14 14 12 20 24 20 13 7 2 354 351 351 348 343 340 341 341 336 333 333 332 331 328 321 314 310 306 301 298 298 293 282 281 279 278 287 297 297 295 291 282 269 258 258 256 254 249 243 242 242 239 237
108 105 102 98 96 93 89 86 83 80 79 77 77 76 76 85 92 94 100 103 99 95 89 77 51 42 40 28 26 28 24 19 18 20 18 18 21 18 17 16 13 11 5 1 357 354 351 344 343 343 339 337 339 340 339 336 330 321 317 314 308 303 298 290 287 290 289 284 286 293 295 294 289 289 287 279 270 264 259 254 248 245 243 239 234